User: anonymous   Login
Location: Azul
(36.7830°S, 59.8500°W)
Time: 10:51:58
(UTC-03:00)
Language:

MOZHAYETS 4 - Orbit

View from above orbital plane
View from above orbital plane
View from above satellite
View from above satellite

Ground track
Ground track

The orbit data is extracted from the following two-line orbital elements,

1 27939U 03042A   21295.04137559  .00000168  00000-0  38668-4 0  9992
2 27939  98.1593  71.3874 0011839 237.4425 122.5607 14.67042056966083
Epoch (UTC): 22 October 2021 00:59:34
Eccentricity: 0.0011839
inclination: 98.1593°
perigee height: 662 km
apogee height: 679 km
right ascension of ascending node: 71.3874°
argument of perigee: 237.4425°
revolutions per day: 14.67042056
mean anomaly at epoch: 122.5607°
orbit number at epoch: 96608

The dashed part of the orbit path shows where the satellite is in the earth's shadow,  

DLR